Rbgn^[z[y[W
メイン
   新天体発見情報
     Comet C/2021 O3 (PANSTARRS)
投稿するにはまず登録を

フラット表示 前のトピック | 次のトピック
投稿者 スレッド
佐藤裕久
投稿日時: 2021-8-18 22:51
モデレータ
登録日: 2005-6-12
居住地: 日本
投稿: 2590
オンライン
Comet C/2021 O3 (PANSTARRS)

R. Weryk (西オンタリオ大学,物理および天文学科)は、7月26日、ハワイ、Haleakalaにある
Pan-STARRS1 1.8-m Ritchey-Chretien反射望遠鏡で得た画像から彗星を発見した。
彼は、注記で、この天体が不十分なシーイングで"ソフト"に見え、彗星らしいと示唆した。
小惑星センターのPCCP webpageに公表後、E. Guido (Castellammare di Stabia, イタリア、7月
30.3日UT, 240秒露出15枚のスタック, "Telescope Live" の0.61-m f/6.5 アストログラフ, El 
Sauce, チリ, 遠隔操作:こじんまりした約8"のコマが見えた。光度は18.8-19.7等)らCCD位置観測
者によって彗星状と観測された。

彗星機能の報告は次のとおり、

OC   Date        Reporter           Coma    Tail    PA          Exposures
X02  2021-07-30  E. Guido            8"                          15x240s
L81  2021-08-01  E. Bryssinck        8"                          12x120s

発見位置は次のとおり、

     2021 UT             R.A. (2000) Decl.       Mag.
     July 26.48098   23 27 10.79   +27 47 30.1   19.8
          26.49180   23 27 10.50   +27 47 31.9   20.0
          26.50264   23 27 10.20   +27 47 33.7   19.9
          26.60836   23 27 07.40   +27 47 48.3   19.6
          26.60901   23 27 07.39   +27 47 48.5   20.2

MPCの暫定放物線軌道要素、位置推算表は次のとおり、

Orbital elements:
    C/2021 O3 (PANSTARRS)                                                       
T 2022 Apr. 20.49806 TT                                 Rudenko                 
q   0.2888063            (2000.0)            P               Q                  
                   Peri.  299.88349     -0.56671024     -0.81340873             
                   Node   189.02692     +0.64769077     -0.53821683             
e   1.0            Incl.   56.72241     -0.50925059     +0.22065558             
From 61 observations 2021 July 26-Aug. 1.                                       
                                                                                
Ephemeris:
Date    TT    R. A. (2000) Decl.     Delta      r    Elong.  Phase   m1
2021 07 02    23 32 16.6 +26 19 39   4.3828  4.5771    94.6    12.8  20.3
...
2021 07 17    23 30 22.2 +27 19 55   4.0046  4.4106   107.0    12.7  20.0
...
2021 07 25    23 27 47.1 +27 43 52   3.8092  4.3205   113.8    12.4  19.8
...
2021 07 31    23 25 04.1 +27 56 46   3.6671  4.2524   119.0    12.1  19.6
2021 08 01    23 24 33.0 +27 58 26   3.6439  4.2411   119.8    12.0  19.6
2021 08 02    23 24 00.6 +27 59 56   3.6208  4.2296   120.7    11.9  19.6
...
2021 08 08    23 20 21.9 +28 05 32   3.4856  4.1609   125.8    11.4  19.4
...
2021 08 16    23 14 25.6 +28 02 32   3.3153  4.0683   132.5    10.6  19.2
...
2021 08 31    23 00 16.9 +27 17 39   3.0339  3.8922   143.5     8.9  18.8

(MPEC 2021-P05、CBET 5009)

フラット表示 前のトピック | 次のトピック

題名 投稿者 日時
 » Comet C/2021 O3 (PANSTARRS) 佐藤裕久 2021-8-18 22:51

投稿するにはまず登録を
 
© 1999 Tsutomu Seki.